Latest Weather Observations for Moss Vale

IDN60801

Issued at 9:04 am EDT Wednesday 4 March 2015 (issued every 30 minutes, with the page automatically refreshed every 10 minutes)

About weather observations | Map of weather stations | Latest weather observations for NSW | Other Formats
Station Details ID: 068239 Name: MOSS VALE AWS Lat: -34.53 Lon: 150.42 Height: 678.4 m
Data from the previous 72 hours. | See also: Recent months at Moss Vale
Date/Time
EDT
Temp
°C
App
Temp
°C
Dew
Point
Rel
Hum
%
Delta-T
°C
Wind Press
QNH
hPa
Press
MSL
hPa
Rain
since 9 am
mm
Dir
 
Spd
km/h
Gust
km/h
Spd
kts
Gust
kts
04/09:00am 18.3 18.1 16.8 91 0.9 N 13 17 7 9 1016.1 1013.9 0.0
04/08:30am 17.4 17.5 16.6 95 0.5 NNE 11 15 6 8 1016.1 1013.9 0.0
04/08:21am 17.3 18.2 16.7 96 0.4 NNE 7 9 4 5 1016.0 1013.8 0.0
04/08:00am 17.1 17.6 16.5 96 0.4 NNE 9 15 5 8 1015.8 1013.6 0.0
04/07:30am 17.0 17.4 16.4 96 0.4 NNE 9 11 5 6 1015.3 1013.0 0.0
04/07:02am 16.7 17.3 15.9 95 0.5 NE 7 9 4 5 1015.0 1012.7 0.0
04/07:00am 16.6 17.2 15.8 95 0.5 NE 7 9 4 5 1015.0 1012.7 0.0
04/06:52am 16.3 17.0 15.5 95 0.5 NE 6 7 3 4 1014.9 1012.6 0.0
04/06:30am 16.1 16.7 15.3 95 0.5 N 6 7 3 4 1014.6 1012.4 0.0
04/06:00am 15.7 16.2 14.9 95 0.5 NNE 6 7 3 4 1014.8 1012.5 0.0
04/05:30am 15.6 15.9 14.6 94 0.6 ENE 6 6 3 3 1014.8 1012.5 0.0
04/05:06am 15.7 17.2 14.7 94 0.6 CALM 0 0 0 0 1015.1 1012.8 0.0
04/05:00am 15.6 16.7 14.6 94 0.6 ESE 2 7 1 4 1015.2 1012.9 0.0
04/04:30am 15.6 15.9 14.6 94 0.6 SSE 6 9 3 5 1015.4 1013.1 0.0
04/04:00am 15.6 15.8 14.8 95 0.5 S 7 9 4 5 1015.5 1013.2 0.0
04/03:30am 15.6 16.0 14.8 95 0.5 SSE 6 7 3 4 1015.5 1013.2 0.0
04/03:00am 15.4 15.6 14.6 95 0.5 SSE 7 11 4 6 1015.7 1013.5 0.0
04/02:34am 15.3 15.3 14.3 94 0.6 S 7 9 4 5 1015.8 1013.6 0.0
04/02:30am 15.3 15.3 14.3 94 0.6 S 7 7 4 4 1015.8 1013.6 0.0
04/02:00am 15.5 15.2 14.5 94 0.6 SE 9 9 5 5 1016.1 1013.9 0.0
04/01:50am 15.6 15.7 14.5 93 0.6 SE 7 9 4 5 1016.3 1014.0 0.0
04/01:30am 15.6 15.3 14.5 93 0.6 SE 9 9 5 5 1016.5 1014.2 0.0
04/01:00am 15.7 15.4 14.4 92 0.8 SSE 9 13 5 7 1016.8 1014.5 0.0
04/12:30am 15.9 15.7 14.6 92 0.8 SE 9 11 5 6 1017.0 1014.8 0.0
04/12:00am 16.3 16.1 14.8 91 0.9 SE 9 11 5 6 1017.1 1014.9 0.0
 
Date/Time
EDT
Temp
°C
App
Temp
°C
Dew
Point
Rel
Hum
%
Delta-T
°C
Wind Press
QNH
hPa
Press
MSL
hPa
Rain
since 9 am
mm
Dir
 
Spd
km/h
Gust
km/h
Spd
kts
Gust
kts
03/11:30pm 16.6 16.9 15.1 91 0.9 ESE 7 11 4 6 1017.3 1015.1 0.0
03/11:00pm 16.7 17.0 15.1 90 1.0 ESE 7 9 4 5 1017.6 1015.4 0.0
03/10:30pm 16.7 16.7 15.1 90 1.0 ENE 9 11 5 6 1017.5 1015.3 0.0
03/10:00pm 16.7 16.2 14.9 89 1.1 E 11 15 6 8 1017.6 1015.4 0.0
03/09:30pm 16.7 15.8 14.9 89 1.1 E 13 17 7 9 1017.5 1015.3 0.0
03/09:00pm 16.7 16.2 14.9 89 1.1 ENE 11 15 6 8 1017.3 1015.1 0.0
03/08:30pm 16.8 15.9 14.8 88 1.2 ENE 13 17 7 9 1016.7 1014.4 0.0
03/08:00pm 17.2 16.4 15.0 87 1.3 ENE 13 17 7 9 1016.7 1014.4 0.0
03/07:30pm 17.6 16.8 15.0 85 1.6 E 13 17 7 9 1016.6 1014.3 0.0
03/07:00pm 18.2 17.2 15.5 84 1.6 ENE 15 20 8 11 1016.1 1013.9 0.0
03/06:44pm 18.7 18.5 15.8 83 1.8 E 11 17 6 9 1016.1 1013.9 0.0
03/06:30pm 19.0 17.8 16.0 83 1.8 E 17 20 9 11 1015.9 1013.7 0.0
03/06:00pm 19.6 18.0 16.1 80 2.2 ESE 19 22 10 12 1015.7 1013.5 0.0
03/05:30pm 20.5 19.2 16.7 79 2.4 ESE 19 26 10 14 1015.5 1013.2 0.0
03/05:00pm 21.3 19.9 16.9 76 2.8 SE 20 26 11 14 1015.5 1013.2 0.0
03/04:30pm 22.9 22.5 18.0 74 3.1 SE 17 28 9 15 1015.3 1013.0 0.0
03/04:00pm 23.4 23.5 17.4 69 3.8 E 13 19 7 10 1015.3 1013.0 0.0
03/03:30pm 23.9 23.7 17.6 68 4.0 E 15 22 8 12 1015.5 1013.2 0.0
03/03:00pm 23.9 22.8 17.2 66 4.3 ESE 19 24 10 13 1015.7 1013.5 0.0
03/02:30pm 23.2 21.5 16.3 65 4.3 SE 20 26 11 14 1016.1 1013.9 0.0
03/02:00pm 23.1 21.7 17.1 69 3.8 SSE 20 28 11 15 1016.0 1013.8 0.0
03/01:30pm 25.3 25.7 16.2 57 5.7 WNW 9 13 5 7 1015.8 1013.6 0.0
03/01:00pm 25.2 24.8 16.1 57 5.7 WSW 13 20 7 11 1016.3 1014.0 0.0
03/12:30pm 25.1 24.1 15.7 56 5.9 W 15 24 8 13 1016.7 1014.4 0.0
03/12:00pm 24.6 23.8 15.2 55 5.8 W 13 20 7 11 1017.0 1014.8 0.0
03/11:30am 23.7 23.4 16.5 64 4.5 WNW 13 19 7 10 1017.6 1015.4 0.0
03/11:00am 22.6 22.1 15.9 66 4.2 WNW 13 20 7 11 1018.0 1015.7 0.0
03/10:30am 21.2 21.6 13.6 62 4.5 N 4 9 2 5 1017.7 1015.5 0.0
03/10:00am 19.7 19.1 13.4 67 3.7 N 9 13 5 7 1017.9 1015.6 0.0
03/09:30am 18.4 16.4 12.8 70 3.2 N 15 20 8 11 1018.0 1015.7 0.0
03/09:00am 17.0 13.4 11.7 71 3.0 N 22 32 12 17 1017.5 1015.3 0.0
03/08:30am 16.1 13.0 11.5 74 2.6 N 19 26 10 14 1017.3 1015.1 0.0
03/08:00am 15.2 13.1 11.0 76 2.3 N 13 19 7 10 1017.1 1014.9 0.0
03/07:30am 14.3 12.0 10.5 78 2.1 N 13 17 7 9 1016.8 1014.5 0.0
03/07:00am 14.0 10.8 9.8 76 2.2 N 17 24 9 13 1016.5 1014.2 0.0
03/06:30am 14.0 10.4 9.8 76 2.2 N 19 26 10 14 1016.3 1014.0 0.0
03/06:00am 13.8 10.8 10.6 81 1.7 N 17 22 9 12 1016.1 1013.9 0.0
03/05:30am 13.7 11.2 11.0 84 1.5 N 15 20 8 11 1016.0 1013.8 0.0
03/05:00am 13.2 10.7 11.1 87 1.1 NNE 15 22 8 12 1016.3 1014.0 0.0
03/04:30am 13.4 10.6 11.5 88 1.0 N 17 20 9 11 1016.4 1014.1 0.0
03/04:00am 12.9 10.1 11.5 91 0.8 NNE 17 20 9 11 1016.5 1014.2 0.0
03/03:30am 13.1 10.4 11.8 92 0.7 NNE 17 24 9 13 1016.6 1014.3 0.0
03/03:00am 13.0 10.2 11.4 90 0.9 NNE 17 24 9 13 1017.1 1014.9 0.0
03/02:30am 13.4 10.7 11.8 90 0.9 NE 17 20 9 11 1017.4 1015.2 0.0
03/02:00am 13.6 10.9 11.8 89 1.0 NNE 17 26 9 14 1018.0 1015.7 0.0
03/01:30am 13.9 10.7 11.8 87 1.2 NNE 20 28 11 15 1018.2 1016.0 0.0
03/01:00am 13.7 10.6 11.6 87 1.2 NNE 19 22 10 12 1018.6 1016.4 0.0
03/12:30am 13.9 10.9 11.8 87 1.2 NNE 19 24 10 13 1019.0 1016.8 0.0
03/12:00am 14.0 11.0 11.9 87 1.2 NNE 19 28 10 15 1018.8 1016.6 0.0
 
Date/Time
EDT
Temp
°C
App
Temp
°C
Dew
Point
Rel
Hum
%
Delta-T
°C
Wind Press
QNH
hPa
Press
MSL
hPa
Rain
since 9 am
mm
Dir
 
Spd
km/h
Gust
km/h
Spd
kts
Gust
kts
02/11:30pm 13.4 11.4 11.6 89 1.0 NNE 13 17 7 9 1019.1 1016.9 0.0
02/11:00pm 13.8 11.5 11.7 87 1.2 NNE 15 20 8 11 1019.3 1017.1 0.0
02/10:30pm 14.3 11.1 12.0 86 1.3 NNE 20 28 11 15 1019.3 1017.1 0.0
02/10:00pm 14.3 11.4 12.2 87 1.2 NNE 19 32 10 17 1019.2 1017.0 0.0
02/09:30pm 14.5 11.7 12.5 88 1.1 NE 19 24 10 13 1019.1 1016.9 0.0
02/09:00pm 14.6 12.6 12.6 88 1.1 NE 15 20 8 11 1019.0 1016.8 0.0
02/08:30pm 14.9 11.6 12.8 87 1.2 NE 22 28 12 15 1018.9 1016.7 0.0
02/08:00pm 15.3 12.6 13.0 86 1.3 NE 19 26 10 14 1019.1 1016.9 0.0
02/07:30pm 15.4 13.1 13.1 86 1.3 NE 17 24 9 13 1018.9 1016.7 0.0
02/07:00pm 15.6 12.0 12.9 84 1.5 ENE 24 33 13 18 1018.5 1016.3 0.0
02/06:30pm 16.0 13.2 13.1 83 1.7 ENE 20 26 11 14 1018.5 1016.3 0.0
02/06:00pm 16.7 13.4 12.8 78 2.2 ENE 22 30 12 16 1018.4 1016.2 0.0
02/05:30pm 17.3 14.5 13.2 77 2.4 NE 20 30 11 16 1018.3 1016.1 0.0
02/05:00pm 16.9 14.0 12.8 77 2.4 ENE 20 28 11 15 1018.5 1016.3 0.0
02/04:30pm 17.8 15.2 13.9 78 2.3 NE 20 24 11 13 1018.5 1016.3 0.0
02/04:00pm 17.5 14.9 13.2 76 2.5 ENE 19 26 10 14 1018.6 1016.4 0.0
02/03:30pm 17.2 13.6 12.9 76 2.5 ENE 24 32 13 17 1018.6 1016.4 0.0
02/03:00pm 17.4 14.3 12.3 72 2.9 NE 20 28 11 15 1019.0 1016.8 0.0
02/02:30pm 17.1 14.1 12.4 74 2.7 NE 20 26 11 14 1019.6 1017.4 0.0
02/02:00pm 17.7 14.9 13.2 75 2.6 ENE 20 26 11 14 1019.6 1017.4 0.0
02/01:30pm 17.6 14.7 12.9 74 2.7 NE 20 24 11 13 1019.9 1017.7 0.0
02/01:00pm 17.2 14.3 12.3 73 2.8 NE 19 24 10 13 1020.2 1018.0 0.0
02/12:30pm 17.0 15.3 12.3 74 2.7 E 13 17 7 9 1020.5 1018.3 0.0
02/12:00pm 16.4 13.8 12.0 75 2.5 ESE 17 24 9 13 1020.8 1018.7 0.0
02/11:30am 16.2 14.1 11.2 72 2.8 ESE 13 19 7 10 1020.9 1018.8 0.0
02/11:00am 16.8 14.9 11.7 72 2.9 E 13 20 7 11 1020.8 1018.7 0.0
02/10:30am 16.5 14.5 11.6 73 2.7 SE 13 19 7 10 1020.8 1018.7 0.0
02/10:00am 15.7 13.6 11.3 75 2.4 ESE 13 20 7 11 1020.9 1018.8 0.0
02/09:30am 14.7 12.5 10.7 77 2.2 SE 13 20 7 11 1020.9 1018.8 0.0
02/09:00am 13.9 11.4 9.7 76 2.2 SSE 13 17 7 9 1020.7 1018.6 1.6
02/08:38am 13.3 10.7 9.4 77 2.1 SSE 13 17 7 9 1020.6 1018.4 1.6
02/08:30am 13.1 10.5 9.4 78 2.0 SE 13 17 7 9 1020.6 1018.4 1.6
02/08:00am 12.2 10.8 9.4 83 1.5 S 7 9 4 5 1020.5 1018.3 1.6
02/07:30am 11.4 9.6 9.3 87 1.1 S 9 13 5 7 1020.4 1018.2 1.6
02/07:00am 11.2 9.4 9.5 89 0.9 S 9 11 5 6 1020.0 1017.8 1.6
02/06:36am 10.9 9.4 9.0 88 1.0 SW 7 9 4 5 1019.8 1017.6 1.6
02/06:30am 10.9 9.4 9.0 88 1.0 SW 7 11 4 6 1019.7 1017.5 1.6
02/06:00am 10.9 9.4 9.2 89 0.9 SSW 7 9 4 5 1019.2 1017.0 1.6
02/05:30am 10.5 9.0 9.1 91 0.7 SSW 7 9 4 5 1019.0 1016.8 1.6
02/05:00am 10.5 8.9 8.9 90 0.8 SW 7 9 4 5 1018.9 1016.7 1.6
02/04:30am 10.3 8.3 8.7 90 0.8 SW 9 11 5 6 1019.1 1016.9 1.6
02/04:00am 10.7 8.7 8.5 86 1.1 S 9 11 5 6 1018.5 1016.3 1.6
02/03:30am 10.8 8.4 8.6 86 1.1 S 11 15 6 8 1018.6 1016.4 1.6
02/03:00am 11.1 8.3 8.7 85 1.2 S 13 17 7 9 1019.0 1016.8 1.6
02/02:30am 11.3 8.1 8.5 83 1.4 SSE 15 20 8 11 1019.0 1016.8 1.6
02/02:00am 11.7 9.3 8.6 81 1.6 SE 11 19 6 10 1018.9 1016.7 1.6
02/01:30am 12.3 7.5 8.8 79 1.8 SSE 24 39 13 21 1018.7 1016.5 1.6
02/01:00am 12.6 8.3 9.2 80 1.8 SE 22 35 12 19 1018.5 1016.3 1.6
02/12:30am 12.9 7.7 9.0 77 2.0 SE 26 39 14 21 1018.5 1016.3 1.6
02/12:00am 13.1 8.4 9.4 78 1.9 SSE 24 39 13 21 1018.4 1016.2 1.6
 
Date/Time
EDT
Temp
°C
App
Temp
°C
Dew
Point
Rel
Hum
%
Delta-T
°C
Wind Press
QNH
hPa
Press
MSL
hPa
Rain
since 9 am
mm
Dir
 
Spd
km/h
Gust
km/h
Spd
kts
Gust
kts
01/11:30pm 13.2 8.7 10.0 81 1.7 SSE 24 35 13 19 1018.2 1016.0 1.6
01/11:00pm 13.5 8.3 10.3 81 1.7 SSE 28 39 15 21 1018.2 1016.0 1.6
01/10:30pm 13.9 9.7 11.1 83 1.5 SSE 24 35 13 19 1018.3 1016.1 1.6
01/10:00pm 14.0 9.8 11.2 83 1.5 SSE 24 33 13 18 1018.0 1015.7 1.6
01/09:30pm 13.9 9.3 11.2 84 1.5 SSE 26 39 14 21 1017.4 1015.2 1.6
01/09:00pm 14.0 8.8 11.5 85 1.4 SSE 30 41 16 22 1016.7 1014.4 1.6
01/08:41pm 14.0 8.8 11.5 85 1.4 SSE 30 48 16 26 1016.1 1013.9 1.6
01/08:30pm 13.9 8.8 11.9 88 1.1 SSE 30 48 16 26 1016.0 1013.8 1.6
01/08:25pm 13.9 9.2 12.1 89 1.0 SSE 28 48 15 26 1015.8 1013.6 1.6
01/08:00pm 14.1 9.6 12.7 91 0.8 SSE 28 39 15 21 1015.2 1012.9 1.6
01/07:30pm 14.1 9.6 12.5 90 0.9 SSE 28 37 15 20 1014.4 1012.2 1.6
01/07:00pm 13.8 9.2 12.4 91 0.8 SSE 28 41 15 22 1014.0 1011.7 1.6
01/06:37pm 13.7 8.9 12.8 94 0.5 SSE 30 48 16 26 1013.6 1011.3 1.6
01/06:34pm 13.7 8.3 12.8 94 0.5 SSE 33 50 18 27 1013.5 1011.2 1.6
01/06:30pm 13.7 8.5 12.8 94 0.5 SSE 32 50 17 27 1013.4 1011.1 1.6
01/06:07pm 14.1 8.9 13.3 95 0.5 SSE 33 52 18 28 1012.6 1010.3 1.6
01/06:00pm 14.5 9.1 13.9 96 0.3 SE 35 48 19 26 1012.5 1010.2 1.6
01/05:30pm 15.9 11.6 15.4 97 0.3 SE 32 52 17 28 1011.9 1009.6 1.6
01/05:24pm 16.1 12.2 15.6 97 0.3 SE 30 52 16 28 1011.8 1009.5 1.6
01/05:00pm 16.4 14.1 15.8 96 0.4 SE 22 33 12 18 1011.8 1009.5 1.6
01/04:30pm 17.1 13.1 16.3 95 0.5 SE 32 46 17 25 1010.2 1007.8 1.6
01/04:27pm 17.3 13.1 16.3 94 0.6 SE 33 46 18 25 1010.2 1007.8 1.6
01/04:24pm 17.6 13.6 16.6 94 0.6 SSE 33 46 18 25 1010.2 1007.8 1.6
01/04:12pm 17.9 13.6 16.9 94 0.6 SSE 35 50 19 27 1009.7 1007.4 1.6
01/04:11pm 17.9 13.6 16.9 94 0.6 SSE 35 50 19 27 1009.5 1007.2 1.6
01/04:00pm 17.8 13.8 16.3 91 0.9 S 32 44 17 24 1009.5 1007.2 1.6
01/03:55pm 18.2 13.5 16.9 92 0.8 S 37 56 20 30 1009.5 1007.2 1.4
01/03:49pm 18.5 13.9 17.0 91 0.9 SSE 37 56 20 30 1010.0 1007.6 0.8
01/03:44pm 19.1 14.5 17.2 89 1.2 SSE 37 50 20 27 1010.4 1008.1 0.0
01/03:30pm 19.7 16.2 17.5 87 1.4 SE 32 43 17 23 1009.1 1006.8 0.0
01/03:28pm 19.6 16.0 17.2 86 1.5 SE 32 43 17 23 1009.0 1006.6 0.0
01/03:00pm 21.4 19.7 18.2 82 2.1 SE 24 32 13 17 1009.1 1006.8 0.0
01/02:31pm 25.5 21.8 14.9 52 6.5 WSW 28 52 15 28 1009.2 1006.9 0.0
01/02:30pm 25.7 22.5 15.4 53 6.4 WSW 26 52 14 28 1009.1 1006.8 0.0
01/02:00pm 27.8 23.5 14.4 43 8.3 W 30 41 16 22 1008.3 1006.0 0.0
01/01:30pm 28.5 25.8 14.7 43 8.6 W 22 32 12 17 1008.6 1006.2 0.0
01/01:00pm 28.1 26.1 15.4 46 8.0 WNW 20 32 11 17 1008.8 1006.4 0.0
01/12:30pm 28.1 25.2 16.1 48 7.6 WNW 26 39 14 21 1008.7 1006.3 0.0
01/12:14pm 28.8 25.2 15.3 43 8.5 WNW 28 46 15 25 1008.7 1006.3 0.0
01/12:00pm 28.6 25.2 16.8 48 7.6 W 30 46 16 25 1009.1 1006.8 0.0
01/11:46am 28.1 24.6 16.4 49 7.5 WNW 30 56 16 30 1009.1 1006.8 0.0
01/11:30am 27.8 25.5 16.7 50 7.1 WNW 24 37 13 20 1009.4 1007.1 0.0
01/11:00am 26.7 23.9 16.3 53 6.6 WNW 26 33 14 18 1009.7 1007.4 0.0
01/10:30am 26.0 22.9 15.7 53 6.5 W 26 44 14 24 1009.6 1006.6 0.0
01/10:00am 25.6 24.3 15.9 55 6.1 WNW 17 26 9 14 1009.6 1006.6 0.0
01/09:30am 25.1 24.8 16.5 59 5.4 NW 13 20 7 11 1009.4 1006.4 0.0

Other Formats:

Comma delimited format used in spreadsheet applications
http://www.bom.gov.au/fwo/IDN60801/IDN60801.94746.axf

JavaScript Object Notation format (JSON) in row-major order
http://www.bom.gov.au/fwo/IDN60801/IDN60801.94746.json